Location: Chevoux
(46.3801°N, 4.9476°E)
Time: 02:05:08
(UTC+00:00)

Tiros 1 - All Passes

Search period start: 12 May 2021 00:00
Search period end: 22 May 2021 00:00
Orbit: 630 x 664 km, 48.4° (Epoch: 11 May)

Date Brightness Start Highest point End Pass type
(mag) Time Alt. Az. Time Alt. Az. Time Alt. Az.
12 May - 00:34:57 10° SW 00:39:27 41° SSE 00:43:57 10° ENE visible
12 May - 02:16:41 10° WSW 02:21:30 81° NNW 02:26:16 10° ENE visible
12 May - 03:59:11 10° WNW 04:03:57 71° N 04:08:40 10° E daylight
12 May - 05:41:30 10° WNW 05:46:10 59° SSW 05:50:47 10° SE daylight
12 May - 07:24:46 10° W 07:27:40 16° SW 07:30:33 10° S daylight
12 May - 23:20:02 10° S 23:23:37 21° SE 23:27:12 10° E visible
13 May - 01:00:31 10° WSW 01:05:17 69° SSE 01:10:02 10° ENE visible
13 May - 02:42:48 10° W 02:47:35 69° N 02:52:20 10° E visible
13 May - 04:25:13 10° WNW 04:30:00 88° N 04:34:44 10° ESE daylight
13 May - 06:07:40 10° W 06:11:56 33° SW 06:16:08 10° SSE daylight
13 May - 23:44:47 10° SW 23:49:15 39° SSE 23:53:41 10° E visible
14 May - 01:26:27 10° WSW 01:31:15 83° NNW 01:36:02 10° ENE visible
14 May - 03:08:55 10° WNW 03:13:42 70° N 03:18:26 10° E visible
14 May - 04:51:14 10° WNW 04:55:57 62° SSW 05:00:35 10° SE daylight
14 May - 06:34:22 10° W 06:37:30 18° SW 06:40:36 10° S daylight
14 May - 22:30:00 10° S 22:33:25 20° SE 22:36:51 10° E visible
15 May - 00:10:17 10° WSW 00:15:03 66° SSE 00:19:48 10° ENE visible
15 May - 01:52:32 10° W 01:57:20 70° N 02:02:05 10° E visible
15 May - 03:34:58 10° WNW 03:39:46 86° NNE 03:44:31 10° ESE daylight
15 May - 05:17:23 10° W 05:21:44 36° SW 05:26:00 10° SSE daylight
15 May - 22:54:38 10° SSW 22:59:02 36° SE 23:03:25 10° E visible
16 May - 00:36:11 10° WSW 00:41:01 86° NNW 00:45:48 10° ENE visible
16 May - 02:18:39 10° W 02:23:26 70° N 02:28:12 10° E visible
16 May - 04:00:59 10° WNW 04:05:43 66° SSW 04:10:23 10° ESE daylight
16 May - 05:43:59 10° W 05:47:19 19° SW 05:50:37 10° S daylight
16 May - 21:39:58 10° S 21:43:14 18° SE 21:46:30 10° E visible
16 May - 23:20:04 10° SW 23:24:49 63° SSE 23:29:33 10° ENE visible
17 May - 01:02:16 10° W 01:07:05 71° N 01:11:51 10° ENE visible
17 May - 02:44:42 10° WNW 02:49:31 83° NNE 02:54:17 10° ESE visible
17 May - 04:27:06 10° W 04:31:31 38° SSW 04:35:52 10° SE daylight
17 May - 22:04:28 10° SSW 22:08:49 34° SE 22:13:09 10° E visible
17 May - 23:45:55 10° WSW 23:50:45 88° NNW 23:55:34 10° ENE visible
18 May - 01:28:23 10° W 01:33:11 69° N 01:37:57 10° E visible
18 May - 03:10:44 10° WNW 03:15:30 69° SSW 03:20:12 10° ESE visible
18 May - 04:53:37 10° W 04:57:08 21° SW 05:00:37 10° S daylight
18 May - 20:49:58 10° S 20:53:03 17° SE 20:56:07 10° E visible
18 May - 22:29:51 10° SW 22:34:35 59° SSE 22:39:19 10° ENE visible
19 May - 00:12:00 10° W 00:16:49 72° N 00:21:36 10° ENE visible
19 May - 01:54:27 10° WNW 01:59:17 81° NNE 02:04:03 10° ESE visible
19 May - 03:36:49 10° WNW 03:41:19 41° SSW 03:45:44 10° SE daylight
19 May - 21:14:20 10° SSW 21:18:36 32° SE 21:22:53 10° E visible
19 May - 22:55:41 10° WSW 23:00:30 89° SSE 23:05:20 10° ENE visible
20 May - 00:38:07 10° W 00:42:56 69° N 00:47:42 10° E visible
20 May - 02:20:28 10° WNW 02:25:16 73° SSW 02:30:00 10° ESE visible
20 May - 04:03:16 10° W 04:06:56 22° SW 04:10:35 10° S daylight
20 May - 20:00:01 10° S 20:02:51 16° SE 20:05:42 10° E visible
20 May - 21:39:38 10° SW 21:44:21 56° SSE 21:49:04 10° ENE visible
20 May - 23:21:44 10° W 23:26:33 73° N 23:31:21 10° ENE visible
21 May - 01:04:11 10° WNW 01:09:01 79° NNE 01:13:48 10° E visible
21 May - 02:46:33 10° WNW 02:51:06 44° SSW 02:55:35 10° SE visible
21 May - 04:31:21 10° WSW 04:32:23 11° SW 04:33:24 10° SW daylight
21 May - 20:24:12 10° SSW 20:28:24 30° SE 20:32:35 10° E visible
21 May - 22:05:26 10° WSW 22:10:15 86° SSE 22:15:06 10° ENE visible
21 May - 23:47:51 10° W 23:52:40 68° N 23:57:27 10° E visible
